Tracking 34401 objects as of 17-Jun-2026
HD Live streaming from Space Station
objects crossing your sky now

USA 12

Track USA 12 now!
USA 12 is classified as:


NORAD ID: 16117
Int'l Code: 1985-092C
Perigee: 36,136.1 km
Apogee: 36,176.6 km
Inclination: 14.3 °
Period: 1,454.7 minutes
Semi major axis: 42527 km
RCS: Unknown
Launch date: October 3, 1985
Source: United States (US)
Launch site: AIR FORCE EASTERN TEST RANGE (AFETR)
Your satellite tracking list
Your tracking list is empty




NASA's NSSDC Master Catalog

Two Line Element Set (TLE):
1 16117U 85092C   26167.29727729 -.00000304  00000-0  00000+0 0  9994
2 16117  14.2918 346.3122 0004759 120.2511  53.5772  0.98992121 25716
Source of the keplerian elements: McCants